Location: Prague
(50.0830°N, 14.4670°E)
Time: 23:28:06
(UTC+01:00)

HuskySat-1 - Pass Details

Date: 06 December 2021
Orbit: 439 x 453 km, 51.6° (Epoch: 25 January)

Event Time Altitude Azimuth Distance (km) Brightness Sun altitude
Rises 18:26:48 0° 258° (WSW) 2,470 ? -22.4°
Reaches altitude 10° 18:28:56 10° 260° (W) 1,595 ? -22.7°
Enters shadow 18:31:56 58° 275° (W) 533 ? -23.2°
